sat.trackr.live / text

‹ back to catalog

2025-155J

NORAD 64884 · 2025-155J

PAYLOAD ACTIVE UNKNOWN

§ Identity

Operator
Country
TBD
Launch date
2025-07-25
Launch site
VOSTO
Launch vehicle
Mass (kg)
RCS (m²)

External: N2YO · Heavens-Above · Gunter

§ Orbital elements

Epoch: 2026-09-21T20:57:31.000608Z

Period
94.06 min
Inclination
97.4685°
Eccentricity
0.0007657
Mean motion
15.30997027 rev/d
Perigee alt
467.6 km
Apogee alt
478.1 km
Semi-major
6,851.0 km
B*
2.2357e-4
RAAN
233.8303°
Arg perigee
168.5745°
Mean anomaly
191.5671°
Rev number
9,554

§ Raw data

2025-155J1 64884U 25155J   26264.87327547  .00006622  00000+0  22357-3 0  99982 64884  97.4685 233.8303 0007657 168.5745 191.5671 15.30997027 95540

JSON: /api/v1/satellites/64884 · /tle

For live sub-satellite position, see the globe view (requires WebGL).

§ Visibility from observer

Set your observer location to see the next 7 days of passes ≥ 10°. The values pass through the URL so the page stays shareable.

No JS? Fill the form by hand. The geolocation button needs JavaScript.